User: anonymous   Login
Location: Eimen
(51.8766°N, 9.7806°E)
Time: 08:04:12
(UTC+00:00)
Language:

Envisat - Orbit

View from above orbital plane
View from above orbital plane
View from above satellite
View from above satellite

Ground track
Ground track

The orbit data is extracted from the following two-line orbital elements,

1 27386U 02009A   24252.89531354  .00000753  00000-0  25934-3 0  9991
2 27386  98.2906 211.1099 0001213  87.7993 292.6006 14.38664338180544
Epoch (UTC): 08 September 2024 21:29:15
Eccentricity: 0.0001213
inclination: 98.2906°
perigee height: 762 km
apogee height: 764 km
right ascension of ascending node: 211.1099°
argument of perigee: 87.7993°
revolutions per day: 14.38664338
mean anomaly at epoch: 292.6006°
orbit number at epoch: 18054

The dashed part of the orbit path shows where the satellite is in the earth's shadow,  

DLR